Location: Austin
(30.3000°N, 97.7500°W)
Time: 01:33:28
(UTC-05:00)

Cosmos-2242 - Pass Details

Date: 15 May 2024
Orbit: 580 x 604 km, 82.5° (Epoch: 19 May)

Event Time Altitude Azimuth Distance (km) Brightness Sun altitude
Exits shadow 21:39:49 29° 143° (SE) 1,062 3.7 -16.2°
Maximum altitude 21:41:23 43° 93° (E) 815 3.3 -16.5°
Drops below altitude 10° 21:45:22 10° 21° (NNE) 1,901 5.7 -17.2°
Sets 21:47:38 0° 15° (NNE) 2,807 6.7 -17.6°
